Погода в Кузебаеве

Россия / Удмуртская Республика     56°04′26″N   52°41′59″E
темп.,
°C
ветер,
м/с
пор.,
м/с
влажн.,
%
обл.,
%
осадки,
мм/ч
давл.,
гПа
погр.,
м
16 января, вс
вс1601:00−11сз5994100 0.5 982378
04:00−12зсз5993100 0.9 985366
07:00−12зсз4895100 0.3 987309
10:00−12зсз4994100 0.6 989325
13:00−10сз5891100 0.1 991473
16:00−11зсз51092100 0.2 993441
19:00−10зсз51190100 0.1 995552
22:00−12з389584 0.1 998177
17 января, пн
пн1701:00−13з4109568 0.0 1000205
04:00−17зюз369968 0.0 100283
07:00−21юз3510067 0.0 100455
10:00−13юз51394100 0.0 1004331
13:00−9ююз71589100 0.0 1003546
16:00−8ююз7148894 0.1 1003516
19:00−9ююз7168799 0.0 1003519
22:00−10ююз7168891 0.0 1004515
18 января, вт
вт1801:00−10ююз7168896 0.0 1004550
04:00−8ююз71589100 0.0 1005641
07:00−8ююз71592100 0.2 1005641
10:00−6ю71692100 0.4 1006673
13:00−4ююз71592100 0.4 1007737
16:00−3ююз71494100 0.9 1008700
19:00−3ююз71492100 0.3 1009641
22:00−2ююз71590100 0.5 1010635
19 января, ср
ср1901:00−1юз61392100 0.2 1012865
04:00−1ююз6139195 0.3 1014695
07:00−2ююз51190100 0.0 1015582
10:00−2ююз61294100 0.1 1017588
13:00−3ююз51092100 0.1 1019455
16:00−4ююз4994100 0.1 1020322
19:00−9ююв2597100 0.0 102161
22:00−9ююв2597100 0.1 102381
20 января, чт
чт2001:00−7ююв259791 0.2 1023105
04:00−10ююв239859 0.3 102436
07:00−14ююв229973 0.0 102513
10:00−13ююв229881 0.1 102648
13:00−10ююв239575 0.0 102691
16:00−12юв119969 0.1 102610
19:00−15юв119981 0.1 102610
22:00−17юв1110098 0.1 10279